TimeCDT,TemperatureF,Dew PointF,Humidity,Sea Level PressureIn,VisibilityMPH,Wind Direction,Wind SpeedMPH,Gust SpeedMPH,PrecipitationIn,Events,Conditions,WindDirDegrees,DateUTC
12:53 AM,57.0,55.9,96,29.88,10.0,Calm,Calm,-,N/A,,Clear,0,2011-10-14 05:53:00
1:53 AM,57.0,55.0,93,29.90,10.0,Calm,Calm,-,N/A,,Clear,0,2011-10-14 06:53:00
2:53 AM,55.0,54.0,96,29.91,8.0,Calm,Calm,-,N/A,,Clear,0,2011-10-14 07:53:00
3:53 AM,55.0,54.0,96,29.92,10.0,Calm,Calm,-,N/A,,Clear,0,2011-10-14 08:53:00
4:53 AM,54.0,53.1,97,29.93,10.0,NE,3.5,-,N/A,,Clear,40,2011-10-14 09:53:00
5:53 AM,54.0,53.1,97,29.94,10.0,Calm,Calm,-,N/A,,Clear,0,2011-10-14 10:53:00
6:53 AM,52.0,51.1,97,29.95,10.0,Calm,Calm,-,N/A,,Clear,0,2011-10-14 11:53:00
7:53 AM,55.9,54.0,93,29.96,7.0,Calm,Calm,-,N/A,,Clear,0,2011-10-14 12:53:00
8:53 AM,63.0,55.9,78,29.99,10.0,East,4.6,-,N/A,,Clear,80,2011-10-14 13:53:00
9:53 AM,71.1,55.9,59,30.00,10.0,ENE,3.5,-,N/A,,Clear,60,2011-10-14 14:53:00
10:53 AM,77.0,55.0,47,29.99,10.0,East,5.8,-,N/A,,Clear,100,2011-10-14 15:53:00
11:53 AM,79.0,50.0,36,29.99,10.0,ESE,5.8,-,N/A,,Clear,120,2011-10-14 16:53:00
12:53 PM,82.0,51.1,34,29.97,10.0,ESE,5.8,-,N/A,,Clear,110,2011-10-14 17:53:00
1:53 PM,82.9,50.0,32,29.96,10.0,East,6.9,-,N/A,,Clear,90,2011-10-14 18:53:00
2:53 PM,82.9,48.9,31,29.94,10.0,Calm,Calm,-,N/A,,Clear,0,2011-10-14 19:53:00
3:53 PM,84.0,48.9,29,29.94,10.0,Calm,Calm,-,N/A,,Clear,0,2011-10-14 20:53:00
4:53 PM,82.9,50.0,32,29.94,10.0,Calm,Calm,-,N/A,,Clear,0,2011-10-14 21:53:00
5:53 PM,81.0,51.1,35,29.95,10.0,Calm,Calm,-,N/A,,Clear,0,2011-10-14 22:53:00
6:53 PM,71.1,57.9,63,29.96,10.0,Calm,Calm,-,N/A,,Clear,0,2011-10-14 23:53:00
7:53 PM,66.0,57.9,75,29.98,10.0,Calm,Calm,-,N/A,,Clear,0,2011-10-15 00:53:00
8:53 PM,63.0,59.0,87,29.99,10.0,Calm,Calm,-,N/A,,Clear,0,2011-10-15 01:53:00
9:53 PM,63.0,59.0,87,30.01,10.0,Calm,Calm,-,N/A,,Clear,0,2011-10-15 02:53:00
10:53 PM,62.1,57.9,86,30.03,10.0,Calm,Calm,-,N/A,,Clear,0,2011-10-15 03:53:00
11:53 PM,61.0,57.0,87,30.02,10.0,Calm,Calm,-,N/A,,Clear,0,2011-10-15 04:53:00